Regional Weather Roundup
Issued by NWS

Home | Current Version | Previous Version | Graphics & Text | Print | Product List | Glossary On
Versions: 1 2 3 4 5 6 7 8 9 10 11 12 13 14 15 16 17 18 19 20 21 22 23 24 25 26 27 28 29 30 31 32 33 34 35 36 37 38 39 40 41 42 43 44 45 46 47 48 49 50
000
ASUS45 KABQ 190310
RWRNM
WEATHER ROUNDUP FOR NEW MEXICO
NATIONAL WEATHER SERVICE ALBUQUERQUE NM
900 PM MDT SAT APR 18 2015

NOTE: "FAIR" MEANS FEW OR NO CLOUDS BELOW 12,000 FEET AGL WITH NO
       SIGNIFICANT WEATHER OR OBSTRUCTIONS TO VISION.

      THIS PRODUCT IS RELEASED AS TWO VERSIONS.  ONE VERSION NEAR
      THE TOP OF THE HOUR CONTAINING PRELIMINARY DATA FROM ALBUQUERQUE
      AND OTHER STATIONS.  A FINAL VERSION WITH ADDITIONAL DATA IS
      ISSUED ABOUT 10 MINUTES AFTER THE HOUR.

NMZ501-503-504-510>518-190400-
NORTHWEST PLATEAU/NORTHCENTRAL MOUNTAINS

CITY           SKY/WX    TMP DP  RH WIND       PRES   REMARKS
FARMINGTON     CLEAR     51  32  48 NW9       29.96R
LOS ALAMOS     MOCLDY    45  29  55 S3        29.98R
SANTA FE       CLOUDY    48  30  49 W12       29.95R
ANGEL FIRE     CLOUDY    36  28  74 W10       29.96R WCI  28

$$
NMZ402-403-502-505>509-190400-
WESTCENTRAL MOUNTAINS/SOUTHWEST MOUNTAINS

CITY           SKY/WX    TMP DP  RH WIND       PRES   REMARKS
GALLUP         CLEAR     51  14  22 N7        30.03R
GRANTS         CLEAR     42  20  40 NW8       30.02R
SILVER CITY      N/A     57  18  21 W10       30.00R

$$
NMZ407-409-411-412-190400-
SOUTHERN DESERTS

CITY           SKY/WX    TMP DP  RH WIND       PRES   REMARKS
LORDSBURG      FAIR      63  16  16 W9        29.95R
DEMING         CLEAR     64  18  17 W9        29.94R
LAS CRUCES     PTCLDY    64  19  17 W12       29.93R
HOLLOMAN AFB   PTCLDY    60  26  27 W8        29.88
ALAMOGORDO     PTCLDY    61  25  25 N6        29.89R
T OR C         CLEAR     63  24  22 NW7       29.93R

$$
NMZ519>523-190400-
CENTRAL VALLEYS/CENTRAL HIGHLANDS

CITY           SKY/WX    TMP DP  RH WIND       PRES   REMARKS
ALBUQUERQUE    PTCLDY    57  24  28 NW13      29.97R
DOUBLE EAGLE   CLEAR     52  23  32 NW10      29.97S
MORIARTY ARPT  FAIR      48  25  40 W12       29.96S
CLINES CORNERS PTCLDY    45  26  47 W26G33    29.92R
BELEN          FAIR      52  18  26 N8        29.96R
SOCORRO        FAIR      59  28  29 N6        29.93R

$$
NMZ524>526-539-540-190400-
SOUTHCENTRAL MOUNTAINS

CITY           SKY/WX    TMP DP  RH WIND       PRES   REMARKS
RUIDOSO        PTCLDY    52  23  32 NW14G23   29.99R

$$
NMZ527>531-190400-
NORTHEAST HIGHLANDS/NORTHEAST PLAINS

CITY           SKY/WX    TMP DP  RH WIND       PRES   REMARKS
LAS VEGAS      CLOUDY    39  19  44 E7        29.90R WCI  34
RATON          MOCLDY    40  29  64 NE6       29.91R
CLAYTON        MOCLDY    44  36  73 W13       29.86R

$$
NMZ532>537-190400-
EASTCENTRAL PLAINS

CITY           SKY/WX    TMP DP  RH WIND       PRES   REMARKS
TUCUMCARI      MOCLDY    56  25  30 N12       29.79R
CANNON AFB     PTCLDY    56  16  20 NW14      29.82R
CLOVIS AIRPORT PTCLDY    50  19  29 W10       29.82R

$$
NMZ028-029-538-190400-
SOUTHEAST PLAINS

CITY           SKY/WX    TMP DP  RH WIND       PRES   REMARKS
ROSWELL        CLEAR     60  34  37 W10       29.82R
ARTESIA        CLEAR     63  32  31 W12       29.84R
CARLSBAD       CLEAR     58  29  33 SW8       29.82R
HOBBS          PTCLDY    55  37  50 W8        29.84R


$$


USA.gov is the U.S. government's official web portal to all federal, state and local government web resources and services.